sat.trackr.live / text

‹ back to catalog

STARLINK-31590

NORAD 59198 · 2024-045W

PAYLOAD ACTIVE UNKNOWN

§ Identity

Operator
Country
US
Launch date
2024-03-10
Launch site
AFETR
Launch vehicle
Mass (kg)
RCS (m²)

Purposes: comms

External: N2YO · Heavens-Above · Gunter

§ Orbital elements

Epoch: 2026-05-25T00:52:03.798048Z

Period
94.27 min
Inclination
43.0030°
Eccentricity
0.0000312
Mean motion
15.27582295 rev/d
Perigee alt
482.8 km
Apogee alt
483.3 km
Semi-major
6,861.2 km
B*
-5.0105e-5
RAAN
21.7120°
Arg perigee
216.7422°
Mean anomaly
143.3409°
Rev number
12,483

§ Raw data

STARLINK-315901 59198U 24045W   26145.03615507 -.00001640  00000+0 -50105-4 0  99992 59198  43.0030  21.7120 0000312 216.7422 143.3409 15.27582295124835

JSON: /api/v1/satellites/59198 · /tle

For live sub-satellite position, see the globe view (requires WebGL).

§ Visibility from observer

Set your observer location to see the next 7 days of passes ≥ 10°. The values pass through the URL so the page stays shareable.

No JS? Fill the form by hand. The geolocation button needs JavaScript.